| time (UTC) | temp F | wind direction | speed MPH | gust MPH | rain 1hr in | rain 24hr in | rain mn in | humidity % | barometer mb |
| 20260831121503 | 88 | 57 | 5.0 | 12.0 | 0.00 | 0.00 | 0.00 | 40 | 1024.5 |
| 20260831121003 | 89 | 63 | 5.0 | 9.0 | 0.00 | 0.00 | 0.00 | 41 | 1024.3 |
| 20260831120504 | 89 | 60 | 6.0 | 10.0 | 0.00 | 0.00 | 0.00 | 41 | 1024.5 |
| 20260831120004 | 89 | 77 | 5.0 | 10.0 | 0.00 | 0.00 | 0.00 | 38 | 1024.2 |
| 20260831115503 | 88 | 65 | 5.0 | 9.0 | 0.00 | 0.00 | 0.00 | 38 | 1024.4 |
| 20260831115004 | 89 | 44 | 5.0 | 9.0 | 0.00 | 0.00 | 0.00 | 36 | 1024.4 |
| 20260831114505 | 88 | 60 | 3.0 | 12.0 | 0.00 | 0.00 | 0.00 | 35 | 1024.5 |
| 20260831113503 | 88 | 46 | 3.0 | 9.0 | 0.00 | 0.00 | 0.00 | 36 | 1024.6 |
| 20260831113003 | 89 | 57 | 4.0 | 8.0 | 0.00 | 0.00 | 0.00 | 35 | 1024.7 |
| 20260831112504 | 89 | 45 | 3.0 | 7.0 | 0.00 | 0.00 | 0.00 | 32 | 1024.4 |
| 20260831112004 | 89 | 53 | 3.0 | 8.0 | 0.00 | 0.00 | 0.00 | 33 | 1024.5 |
| 20260831111004 | 89 | 62 | 2.0 | 7.0 | 0.00 | 0.00 | 0.00 | 33 | 1024.6 |
| 20260831110004 | 88 | 49 | 3.0 | 8.0 | 0.00 | 0.00 | 0.00 | 31 | 1024.7 |
| 20260831105504 | 88 | 40 | 3.0 | 6.0 | 0.00 | 0.00 | 0.00 | 30 | 1024.6 |
| 20260831105003 | 88 | 74 | 2.0 | 6.0 | 0.00 | 0.00 | 0.00 | 29 | 1024.8 |
| 20260831104503 | 88 | 61 | 2.0 | 6.0 | 0.00 | 0.00 | 0.00 | 29 | 1024.9 |
| 20260831103503 | 87 | 75 | 3.0 | 6.0 | 0.00 | 0.00 | 0.00 | 27 | 1025.1 |
| 20260831102503 | 85 | 45 | 4.0 | 9.0 | 0.00 | 0.00 | 0.00 | 29 | 1025.2 |
| 20260831101504 | 84 | 51 | 4.0 | 8.0 | 0.00 | 0.00 | 0.00 | 29 | 1025.2 |
| 20260831101004 | 84 | 60 | 3.0 | 9.0 | 0.00 | 0.00 | 0.00 | 30 | 1025.4 |
| 20260831100503 | 84 | 60 | 2.0 | 7.0 | 0.00 | 0.00 | 0.00 | 30 | 1025.1 |
| 20260831100004 | 84 | 41 | 3.0 | 6.0 | 0.00 | 0.00 | 0.00 | 30 | 1025.1 |
| 20260831095004 | 83 | 58 | 3.0 | 9.0 | 0.00 | 0.00 | 0.00 | 30 | 1025.0 |
| 20260831094503 | 83 | 59 | 4.0 | 9.0 | 0.00 | 0.00 | 0.00 | 30 | 1025.2 |
| 20260831094004 | 83 | 48 | 3.0 | 6.0 | 0.00 | 0.00 | 0.00 | 29 | 1025.1 |
| 20260831093504 | 83 | 40 | 2.0 | 6.0 | 0.00 | 0.00 | 0.00 | 29 | 1025.2 |
| 20260831093004 | 82 | 67 | 4.0 | 8.0 | 0.00 | 0.00 | 0.00 | 29 | 1025.3 |
| 20260831092004 | 83 | 65 | 2.0 | 5.0 | 0.00 | 0.00 | 0.00 | 29 | 1025.2 |
| 20260831091504 | 82 | 53 | 2.0 | 6.0 | 0.00 | 0.00 | 0.00 | 30 | 1025.4 |
| 20260831091003 | 81 | 43 | 3.0 | 8.0 | 0.00 | 0.00 | 0.00 | 31 | 1025.4 |
| 20260831090504 | 82 | 52 | 3.0 | 7.0 | 0.00 | 0.00 | 0.00 | 31 | 1025.1 |
| 20260831090004 | 82 | 61 | 2.0 | 5.0 | 0.00 | 0.00 | 0.00 | 29 | 1025.0 |
| 20260831085004 | 81 | 60 | 2.0 | 5.0 | 0.00 | 0.00 | 0.00 | 29 | 1024.7 |
| 20260831084504 | 81 | 57 | 2.0 | 5.0 | 0.00 | 0.00 | 0.00 | 29 | 1024.7 |
| 20260831084004 | 80 | 51 | 2.0 | 5.0 | 0.00 | 0.00 | 0.00 | 30 | 1024.8 |
| 20260831083503 | 80 | 53 | 3.0 | 6.0 | 0.00 | 0.00 | 0.00 | 32 | 1024.7 |
| 20260831083004 | 81 | 56 | 2.0 | 5.0 | 0.00 | 0.00 | 0.00 | 32 | 1024.5 |
| 20260831082504 | 81 | 98 | 2.0 | 3.0 | 0.00 | 0.00 | 0.00 | 32 | 1024.6 |
| 20260831082003 | 80 | 62 | 2.0 | 6.0 | 0.00 | 0.00 | 0.00 | 31 | 1024.5 |
| 20260831081503 | 81 | 65 | 1.0 | 5.0 | 0.00 | 0.00 | 0.00 | 31 | 1024.3 |
| 20260831081004 | 80 | 89 | 0.0 | 2.0 | 0.00 | 0.00 | 0.00 | 32 | 1024.2 |
| 20260831080504 | 80 | 93 | 1.0 | 2.0 | 0.00 | 0.00 | 0.00 | 32 | 1024.3 |
| 20260831080004 | 81 | 123 | 1.0 | 2.0 | 0.00 | 0.00 | 0.00 | 31 | 1023.9 |
| 20260831075503 | 80 | 133 | 1.0 | 2.0 | 0.00 | 0.00 | 0.00 | 31 | 1023.9 |
| 20260831074504 | 78 | 223 | 0.0 | 0.0 | 0.00 | 0.00 | 0.00 | 33 | 1024.0 |
| 20260831074004 | 76 | 223 | 0.0 | 1.0 | 0.00 | 0.00 | 0.00 | 33 | 1024.2 |
| 20260831073504 | 76 | 223 | 0.0 | 1.0 | 0.00 | 0.00 | 0.00 | 34 | 1024.3 |
| 20260831073004 | 75 | 223 | 1.0 | 1.0 | 0.00 | 0.00 | 0.00 | 35 | 1024.2 |
| 20260831072504 | 74 | 223 | 1.0 | 1.0 | 0.00 | 0.00 | 0.00 | 35 | 1024.2 |
| 20260831071503 | 73 | 223 | 1.0 | 1.0 | 0.00 | 0.00 | 0.00 | 37 | 1024.5 |
| 20260831071004 | 73 | 224 | 1.0 | 1.0 | 0.00 | 0.00 | 0.00 | 38 | 1024.3 |
| 20260831070504 | 73 | 223 | 0.0 | 1.0 | 0.00 | 0.00 | 0.00 | 38 | 1024.2 |
| 20260831070004 | 74 | 249 | 0.0 | 0.0 | 0.00 | 0.00 | 0.00 | 37 | 1024.2 |
| 20260831065504 | 74 | 249 | 0.0 | 0.0 | 0.00 | 0.00 | 0.00 | 39 | 1024.1 |
| 20260831065004 | 72 | 249 | 0.0 | 0.0 | 0.00 | 0.00 | 0.00 | 38 | 1024.3 |
| 20260831064504 | 70 | 249 | 0.0 | 0.0 | 0.00 | 0.00 | 0.00 | 40 | 1024.4 |
| 20260831064005 | 70 | 248 | 0.0 | 0.0 | 0.00 | 0.00 | 0.00 | 40 | 1024.5 |
| 20260831063504 | 70 | 249 | 0.0 | 0.0 | 0.00 | 0.00 | 0.00 | 39 | 1024.4 |
| 20260831063004 | 71 | 249 | 0.0 | 0.0 | 0.00 | 0.00 | 0.00 | 39 | 1024.2 |
| 20260831062504 | 70 | 249 | 0.0 | 0.0 | 0.00 | 0.00 | 0.00 | 39 | 1024.1 |
| 20260831062004 | 69 | 248 | 0.0 | 0.0 | 0.00 | 0.00 | 0.00 | 40 | 1024.1 |
| 20260831061504 | 70 | 253 | 0.0 | 0.0 | 0.00 | 0.00 | 0.00 | 40 | 1023.7 |
| 20260831061004 | 68 | 256 | 0.0 | 0.0 | 0.00 | 0.00 | 0.00 | 43 | 1024.0 |
| 20260831060504 | 67 | 256 | 0.0 | 0.0 | 0.00 | 0.00 | 0.00 | 43 | 1024.1 |
| 20260831060004 | 67 | 256 | 0.0 | 0.0 | 0.00 | 0.00 | 0.00 | 43 | 1024.0 |
| 20260831055004 | 66 | 250 | 1.0 | 2.0 | 0.00 | 0.00 | 0.00 | 43 | 1023.9 |
| 20260831054504 | 66 | 265 | 0.0 | 0.0 | 0.00 | 0.00 | 0.00 | 45 | 1023.7 |
| 20260831054004 | 66 | 265 | 0.0 | 0.0 | 0.00 | 0.00 | 0.00 | 44 | 1023.8 |
| 20260831053503 | 65 | 265 | 0.0 | 0.0 | 0.00 | 0.00 | 0.00 | 45 | 1023.8 |
| 20260831053005 | 66 | 265 | 0.0 | 0.0 | 0.00 | 0.00 | 0.00 | 44 | 1023.7 |
| 20260831052004 | 66 | 265 | 0.0 | 0.0 | 0.00 | 0.00 | 0.00 | 43 | 1023.5 |
| 20260831051503 | 66 | 265 | 0.0 | 0.0 | 0.00 | 0.00 | 0.00 | 43 | 1023.6 |
| 20260831051003 | 66 | 265 | 1.0 | 2.0 | 0.00 | 0.00 | 0.00 | 43 | 1023.4 |
| 20260831050505 | 66 | 347 | 0.0 | 2.0 | 0.00 | 0.00 | 0.00 | 43 | 1023.5 |
| 20260831050004 | 66 | 263 | 0.0 | 1.0 | 0.00 | 0.00 | 0.00 | 43 | 1023.2 |
| 20260831045503 | 66 | 223 | 1.0 | 1.0 | 0.00 | 0.00 | 0.00 | 44 | 1023.4 |
| 20260831045003 | 66 | 222 | 0.0 | 0.0 | 0.00 | 0.00 | 0.00 | 43 | 1023.2 |
| 20260831044504 | 66 | 223 | 0.0 | 1.0 | 0.00 | 0.00 | 0.00 | 43 | 1023.2 |
| 20260831044004 | 66 | 218 | 1.0 | 2.0 | 0.00 | 0.00 | 0.00 | 43 | 1023.3 |
| 20260831043504 | 66 | 237 | 0.0 | 2.0 | 0.00 | 0.00 | 0.00 | 43 | 1023.5 |
| 20260831043004 | 67 | 238 | 0.0 | 2.0 | 0.00 | 0.00 | 0.00 | 42 | 1023.2 |
| 20260831042504 | 67 | 237 | 1.0 | 2.0 | 0.00 | 0.00 | 0.00 | 42 | 1023.2 |
| 20260831040504 | 67 | 237 | 0.0 | 1.0 | 0.00 | 0.00 | 0.00 | 41 | 1023.5 |
| 20260831040004 | 67 | 238 | 0.0 | 1.0 | 0.00 | 0.00 | 0.00 | 41 | 1023.4 |
| 20260831035504 | 67 | 238 | 1.0 | 2.0 | 0.00 | 0.00 | 0.00 | 41 | 1023.4 |
| 20260831034504 | 68 | 237 | 0.0 | 1.0 | 0.00 | 0.00 | 0.00 | 41 | 1023.3 |
| 20260831034004 | 67 | 238 | 0.0 | 2.0 | 0.00 | 0.00 | 0.00 | 41 | 1023.2 |
| 20260831033503 | 67 | 238 | 0.0 | 0.0 | 0.00 | 0.00 | 0.00 | 41 | 1023.3 |
| 20260831032504 | 68 | 238 | 1.0 | 2.0 | 0.00 | 0.00 | 0.00 | 40 | 1023.0 |
| 20260831032004 | 68 | 238 | 0.0 | 0.0 | 0.00 | 0.00 | 0.00 | 42 | 1022.9 |
| 20260831031504 | 68 | 238 | 0.0 | 0.0 | 0.00 | 0.00 | 0.00 | 40 | 1023.1 |
| 20260831031003 | 69 | 238 | 0.0 | 1.0 | 0.00 | 0.00 | 0.00 | 39 | 1022.9 |
| 20260831030504 | 69 | 238 | 1.0 | 2.0 | 0.00 | 0.00 | 0.00 | 39 | 1023.0 |
| 20260831030004 | 69 | 238 | 0.0 | 2.0 | 0.00 | 0.00 | 0.00 | 39 | 1023.1 |
| 20260831025504 | 69 | 238 | 0.0 | 0.0 | 0.00 | 0.00 | 0.00 | 39 | 1022.9 |
| 20260831024504 | 69 | 238 | 1.0 | 2.0 | 0.00 | 0.00 | 0.00 | 39 | 1022.7 |
| 20260831024004 | 69 | 226 | 1.0 | 2.0 | 0.00 | 0.00 | 0.00 | 39 | 1022.9 |
| 20260831023504 | 69 | 219 | 0.0 | 1.0 | 0.00 | 0.00 | 0.00 | 39 | 1023.0 |
| 20260831023005 | 69 | 225 | 1.0 | 2.0 | 0.00 | 0.00 | 0.00 | 38 | 1022.9 |
| 20260831022503 | 69 | 236 | 1.0 | 1.0 | 0.00 | 0.00 | 0.00 | 38 | 1023.0 |
| 20260831022004 | 69 | 199 | 0.0 | 2.0 | 0.00 | 0.00 | 0.00 | 38 | 1023.2 |
| 20260831021504 | 69 | 67 | 0.0 | 1.0 | 0.00 | 0.00 | 0.00 | 38 | 1023.2 |
| 20260831020004 | 70 | 228 | 1.0 | 3.0 | 0.00 | 0.00 | 0.00 | 38 | 1023.0 |
| 20260831015503 | 70 | 259 | 0.0 | 0.0 | 0.00 | 0.00 | 0.00 | 38 | 1023.2 |
| 20260831015003 | 70 | 260 | 0.0 | 0.0 | 0.00 | 0.00 | 0.00 | 37 | 1023.0 |
| 20260831014503 | 70 | 260 | 1.0 | 2.0 | 0.00 | 0.00 | 0.00 | 37 | 1023.0 |
| 20260831013503 | 69 | 258 | 0.0 | 1.0 | 0.00 | 0.00 | 0.00 | 37 | 1023.0 |
| 20260831012504 | 70 | 258 | 0.0 | 1.0 | 0.00 | 0.00 | 0.00 | 37 | 1023.1 |
| 20260831012004 | 70 | 258 | 0.0 | 0.0 | 0.00 | 0.00 | 0.00 | 36 | 1023.3 |
| 20260831011504 | 70 | 258 | 0.0 | 0.0 | 0.00 | 0.00 | 0.00 | 37 | 1023.1 |
| 20260831011004 | 70 | 258 | 0.0 | 1.0 | 0.00 | 0.00 | 0.00 | 37 | 1023.0 |
| 20260831010504 | 70 | 258 | 0.0 | 1.0 | 0.00 | 0.00 | 0.00 | 36 | 1023.2 |
| 20260831005504 | 70 | 258 | 0.0 | 1.0 | 0.00 | 0.00 | 0.00 | 37 | 1023.3 |
| 20260831005004 | 70 | 258 | 0.0 | 0.0 | 0.00 | 0.00 | 0.00 | 37 | 1023.1 |
| 20260831004503 | 70 | 258 | 0.0 | 1.0 | 0.00 | 0.00 | 0.00 | 37 | 1023.0 |
| 20260831003504 | 70 | 217 | 0.0 | 2.0 | 0.00 | 0.00 | 0.00 | 36 | 1023.1 |
| 20260831003004 | 70 | 241 | 1.0 | 1.0 | 0.00 | 0.00 | 0.00 | 37 | 1023.3 |
| 20260831002504 | 69 | 214 | 0.0 | 0.0 | 0.00 | 0.00 | 0.00 | 38 | 1023.3 |
| 20260831002004 | 70 | 214 | 0.0 | 0.0 | 0.00 | 0.00 | 0.00 | 38 | 1023.5 |
| 20260831001504 | 69 | 214 | 0.0 | 0.0 | 0.00 | 0.00 | 0.00 | 38 | 1023.2 |
| 20260831001003 | 70 | 214 | 0.0 | 0.0 | 0.00 | 0.00 | 0.00 | 38 | 1023.5 |
| 20260831000503 | 70 | 214 | 0.0 | 2.0 | 0.00 | 0.00 | 0.00 | 38 | 1023.4 |
| 20260831000004 | 70 | 251 | 0.0 | 1.0 | 0.00 | 0.00 | 0.00 | 38 | 1023.4 |
| 20260830235504 | 71 | 258 | 0.0 | 0.0 | 0.00 | 0.00 | 0.00 | 38 | 1023.3 |
| 20260830235004 | 72 | 258 | 0.0 | 0.0 | 0.00 | 0.00 | 0.00 | 37 | 1023.1 |
| 20260830234504 | 72 | 258 | 0.0 | 1.0 | 0.00 | 0.00 | 0.00 | 35 | 1023.2 |
| 20260830234003 | 71 | 258 | 0.0 | 0.0 | 0.00 | 0.00 | 0.00 | 36 | 1023.1 |
| 20260830233504 | 71 | 259 | 0.0 | 0.0 | 0.00 | 0.00 | 0.00 | 36 | 1023.4 |
| 20260830233004 | 71 | 259 | 0.0 | 0.0 | 0.00 | 0.00 | 0.00 | 36 | 1023.5 |
| 20260830232004 | 72 | 258 | 0.0 | 0.0 | 0.00 | 0.00 | 0.00 | 37 | 1023.4 |
| 20260830231504 | 72 | 258 | 0.0 | 0.0 | 0.00 | 0.00 | 0.00 | 36 | 1023.4 |
| 20260830231004 | 72 | 258 | 0.0 | 0.0 | 0.00 | 0.00 | 0.00 | 37 | 1023.5 |
| 20260830230504 | 73 | 258 | 0.0 | 0.0 | 0.00 | 0.00 | 0.00 | 36 | 1023.7 |
| 20260830230004 | 73 | 258 | 0.0 | 2.0 | 0.00 | 0.00 | 0.00 | 36 | 1023.6 |
| 20260830225504 | 73 | 188 | 1.0 | 3.0 | 0.00 | 0.00 | 0.00 | 35 | 1023.6 |
| 20260830225004 | 73 | 240 | 1.0 | 3.0 | 0.00 | 0.00 | 0.00 | 35 | 1023.9 |
| 20260830224504 | 73 | 197 | 1.0 | 3.0 | 0.00 | 0.00 | 0.00 | 35 | 1023.6 |
| 20260830224004 | 73 | 238 | 1.0 | 3.0 | 0.00 | 0.00 | 0.00 | 35 | 1023.5 |
| 20260830223005 | 74 | 260 | 1.0 | 3.0 | 0.00 | 0.00 | 0.00 | 35 | 1023.5 |
| 20260830222504 | 74 | 238 | 2.0 | 6.0 | 0.00 | 0.00 | 0.00 | 35 | 1023.5 |
| 20260830222004 | 74 | 237 | 1.0 | 5.0 | 0.00 | 0.00 | 0.00 | 35 | 1023.6 |
| 20260830221004 | 74 | 239 | 0.0 | 3.0 | 0.00 | 0.00 | 0.00 | 36 | 1023.6 |
| 20260830220503 | 74 | 323 | 0.0 | 2.0 | 0.00 | 0.00 | 0.00 | 37 | 1023.6 |
| 20260830215503 | 74 | 306 | 0.0 | 1.0 | 0.00 | 0.00 | 0.00 | 36 | 1023.5 |
| 20260830215004 | 74 | 307 | 0.0 | 2.0 | 0.00 | 0.00 | 0.00 | 36 | 1023.8 |
| 20260830214504 | 75 | 224 | 0.0 | 3.0 | 0.00 | 0.00 | 0.00 | 35 | 1023.8 |
| 20260830214004 | 75 | 236 | 2.0 | 5.0 | 0.00 | 0.00 | 0.00 | 35 | 1023.7 |
| 20260830213004 | 75 | 243 | 3.0 | 5.0 | 0.00 | 0.00 | 0.00 | 35 | 1023.8 |
| 20260830212504 | 75 | 200 | 2.0 | 6.0 | 0.00 | 0.00 | 0.00 | 36 | 1023.6 |
| 20260830212004 | 76 | 109 | 0.0 | 3.0 | 0.00 | 0.00 | 0.00 | 35 | 1023.5 |
| 20260830211504 | 76 | 0 | 0.0 | 3.0 | 0.00 | 0.00 | 0.00 | 35 | 1023.4 |
| 20260830211004 | 76 | 274 | 1.0 | 3.0 | 0.00 | 0.00 | 0.00 | 35 | 1023.5 |
| 20260830210504 | 76 | 217 | 2.0 | 5.0 | 0.00 | 0.00 | 0.00 | 35 | 1023.5 |
| 20260830205504 | 78 | 266 | 2.0 | 5.0 | 0.00 | 0.00 | 0.00 | 31 | 1023.2 |
| 20260830204503 | 79 | 261 | 3.0 | 12.0 | 0.00 | 0.00 | 0.00 | 30 | 1023.1 |
| 20260830204004 | 79 | 227 | 2.0 | 7.0 | 0.00 | 0.00 | 0.00 | 29 | 1023.3 |
| 20260830203504 | 78 | 178 | 2.0 | 5.0 | 0.00 | 0.00 | 0.00 | 30 | 1023.2 |
| 20260830203003 | 77 | 248 | 2.0 | 6.0 | 0.00 | 0.00 | 0.00 | 32 | 1023.3 |
| 20260830202504 | 77 | 271 | 1.0 | 8.0 | 0.00 | 0.00 | 0.00 | 35 | 1023.3 |
| 20260830202004 | 77 | 231 | 1.0 | 5.0 | 0.00 | 0.00 | 0.00 | 35 | 1023.4 |
| 20260830201505 | 78 | 22 | 1.0 | 5.0 | 0.00 | 0.00 | 0.00 | 35 | 1023.3 |
| 20260830201003 | 78 | 46 | 1.0 | 5.0 | 0.00 | 0.00 | 0.00 | 34 | 1023.4 |
| 20260830200504 | 79 | 58 | 2.0 | 5.0 | 0.00 | 0.00 | 0.00 | 33 | 1023.1 |
| 20260830200003 | 79 | 216 | 0.0 | 2.0 | 0.00 | 0.00 | 0.00 | 33 | 1023.2 |
| 20260830195504 | 80 | 84 | 1.0 | 6.0 | 0.00 | 0.00 | 0.00 | 32 | 1022.9 |
| 20260830195003 | 81 | 207 | 1.0 | 3.0 | 0.00 | 0.00 | 0.00 | 30 | 1022.9 |
| 20260830194503 | 81 | 232 | 2.0 | 6.0 | 0.00 | 0.00 | 0.00 | 30 | 1022.7 |
| 20260830194004 | 81 | 228 | 3.0 | 6.0 | 0.00 | 0.00 | 0.00 | 30 | 1022.6 |
| 20260830193504 | 81 | 225 | 5.0 | 10.0 | 0.00 | 0.00 | 0.00 | 30 | 1022.7 |
| 20260830193004 | 81 | 240 | 3.0 | 6.0 | 0.00 | 0.00 | 0.00 | 30 | 1022.9 |
| 20260830192504 | 81 | 246 | 2.0 | 6.0 | 0.00 | 0.00 | 0.00 | 30 | 1022.7 |
| 20260830192003 | 81 | 26 | 0.0 | 1.0 | 0.00 | 0.00 | 0.00 | 31 | 1022.7 |
| 20260830191504 | 81 | 348 | 1.0 | 3.0 | 0.00 | 0.00 | 0.00 | 31 | 1022.5 |
| 20260830191004 | 82 | 291 | 2.0 | 5.0 | 0.00 | 0.00 | 0.00 | 30 | 1022.7 |
| 20260830190505 | 82 | 238 | 2.0 | 5.0 | 0.00 | 0.00 | 0.00 | 30 | 1022.6 |
| 20260830185504 | 80 | 262 | 0.0 | 2.0 | 0.00 | 0.00 | 0.00 | 33 | 1022.9 |
| 20260830185004 | 80 | 260 | 0.0 | 2.0 | 0.00 | 0.00 | 0.00 | 35 | 1022.7 |
| 20260830184504 | 80 | 260 | 0.0 | 1.0 | 0.00 | 0.00 | 0.00 | 35 | 1022.9 |
| 20260830184004 | 80 | 260 | 0.0 | 1.0 | 0.00 | 0.00 | 0.00 | 35 | 1022.8 |
| 20260830183004 | 81 | 260 | 0.0 | 1.0 | 0.00 | 0.00 | 0.00 | 34 | 1022.9 |
| 20260830182505 | 82 | 260 | 0.0 | 1.0 | 0.00 | 0.00 | 0.00 | 34 | 1022.8 |
| 20260830182004 | 83 | 260 | 0.0 | 2.0 | 0.00 | 0.00 | 0.00 | 33 | 1022.7 |
| 20260830181004 | 83 | 229 | 0.0 | 2.0 | 0.00 | 0.00 | 0.00 | 32 | 1022.7 |
| 20260830180504 | 83 | 261 | 1.0 | 2.0 | 0.00 | 0.00 | 0.00 | 31 | 1022.8 |
| 20260830180004 | 84 | 231 | 2.0 | 3.0 | 0.00 | 0.00 | 0.00 | 31 | 1022.7 |
| 20260830175503 | 84 | 236 | 1.0 | 2.0 | 0.00 | 0.00 | 0.00 | 30 | 1022.7 |
| 20260830175003 | 84 | 342 | 1.0 | 6.0 | 0.00 | 0.00 | 0.00 | 30 | 1022.7 |
| 20260830174503 | 84 | 239 | 2.0 | 5.0 | 0.00 | 0.00 | 0.00 | 30 | 1022.8 |
| 20260830173503 | 85 | 206 | 1.0 | 5.0 | 0.00 | 0.00 | 0.00 | 30 | 1022.6 |
| 20260830173005 | 85 | 205 | 1.0 | 3.0 | 0.00 | 0.00 | 0.00 | 30 | 1022.5 |
| 20260830172504 | 86 | 207 | 2.0 | 7.0 | 0.00 | 0.00 | 0.00 | 29 | 1022.6 |
| 20260830172004 | 86 | 229 | 1.0 | 3.0 | 0.00 | 0.00 | 0.00 | 29 | 1022.5 |
| 20260830171504 | 87 | 238 | 1.0 | 5.0 | 0.00 | 0.00 | 0.00 | 29 | 1022.3 |
| 20260830171003 | 88 | 246 | 2.0 | 8.0 | 0.00 | 0.00 | 0.00 | 29 | 1022.3 |
| 20260830170504 | 88 | 190 | 2.0 | 6.0 | 0.00 | 0.00 | 0.00 | 28 | 1022.2 |
| 20260830170004 | 88 | 241 | 3.0 | 7.0 | 0.00 | 0.00 | 0.00 | 28 | 1022.1 |
| 20260830165504 | 89 | 296 | 2.0 | 8.0 | 0.00 | 0.00 | 0.00 | 27 | 1022.0 |
| 20260830165004 | 89 | 271 | 5.0 | 9.0 | 0.00 | 0.00 | 0.00 | 27 | 1022.2 |
| 20260830164504 | 89 | 223 | 3.0 | 8.0 | 0.00 | 0.00 | 0.00 | 26 | 1022.0 |
| 20260830164004 | 89 | 334 | 2.0 | 9.0 | 0.00 | 0.00 | 0.00 | 26 | 1022.0 |
| 20260830163004 | 90 | 209 | 3.0 | 9.0 | 0.00 | 0.00 | 0.00 | 25 | 1021.9 |
| 20260830162504 | 90 | 230 | 4.0 | 9.0 | 0.00 | 0.00 | 0.00 | 24 | 1022.0 |
| 20260830162003 | 90 | 235 | 3.0 | 9.0 | 0.00 | 0.00 | 0.00 | 24 | 1021.9 |
| 20260830161504 | 89 | 217 | 4.0 | 9.0 | 0.00 | 0.00 | 0.00 | 25 | 1022.0 |
| 20260830161004 | 89 | 240 | 3.0 | 9.0 | 0.00 | 0.00 | 0.00 | 25 | 1022.0 |
| 20260830160004 | 90 | 256 | 3.0 | 8.0 | 0.00 | 0.00 | 0.00 | 25 | 1022.1 |
| 20260830155504 | 89 | 270 | 4.0 | 14.0 | 0.00 | 0.00 | 0.00 | 26 | 1022.0 |
| 20260830155003 | 89 | 242 | 5.0 | 10.0 | 0.00 | 0.00 | 0.00 | 27 | 1022.2 |
| 20260830154004 | 90 | 309 | 3.0 | 10.0 | 0.00 | 0.00 | 0.00 | 27 | 1022.0 |
| 20260830153504 | 90 | 227 | 5.0 | 10.0 | 0.00 | 0.00 | 0.00 | 27 | 1022.0 |
| 20260830153004 | 89 | 251 | 5.0 | 10.0 | 0.00 | 0.00 | 0.00 | 27 | 1022.1 |
| 20260830152503 | 90 | 219 | 5.0 | 9.0 | 0.00 | 0.00 | 0.00 | 27 | 1022.1 |
| 20260830152004 | 90 | 259 | 5.0 | 10.0 | 0.00 | 0.00 | 0.00 | 26 | 1022.1 |
| 20260830151503 | 90 | 222 | 4.0 | 9.0 | 0.00 | 0.00 | 0.00 | 26 | 1022.1 |
| 20260830151004 | 90 | 239 | 6.0 | 10.0 | 0.00 | 0.00 | 0.00 | 26 | 1022.1 |
| 20260830150503 | 90 | 247 | 5.0 | 14.0 | 0.00 | 0.00 | 0.00 | 26 | 1022.1 |
| 20260830145504 | 91 | 246 | 3.0 | 10.0 | 0.00 | 0.00 | 0.00 | 25 | 1022.1 |
| 20260830144504 | 91 | 208 | 4.0 | 9.0 | 0.00 | 0.00 | 0.00 | 24 | 1022.1 |
| 20260830143504 | 91 | 240 | 4.0 | 8.0 | 0.00 | 0.00 | 0.00 | 25 | 1022.1 |
| 20260830143003 | 90 | 247 | 4.0 | 9.0 | 0.00 | 0.00 | 0.00 | 26 | 1022.2 |
| 20260830142504 | 90 | 196 | 5.0 | 13.0 | 0.00 | 0.00 | 0.00 | 26 | 1022.0 |
| 20260830142003 | 89 | 14 | 3.0 | 12.0 | 0.00 | 0.00 | 0.00 | 27 | 1022.2 |
| 20260830140504 | 89 | 253 | 6.0 | 13.0 | 0.00 | 0.00 | 0.00 | 28 | 1022.3 |
| 20260830140004 | 89 | 199 | 6.0 | 13.0 | 0.00 | 0.00 | 0.00 | 27 | 1022.3 |
| 20260830135504 | 89 | 254 | 6.0 | 12.0 | 0.00 | 0.00 | 0.00 | 27 | 1022.5 |
| 20260830134504 | 90 | 224 | 5.0 | 10.0 | 0.00 | 0.00 | 0.00 | 27 | 1022.5 |
| 20260830134004 | 90 | 219 | 7.0 | 13.0 | 0.00 | 0.00 | 0.00 | 27 | 1022.6 |
| 20260830133504 | 90 | 220 | 5.0 | 13.0 | 0.00 | 0.00 | 0.00 | 27 | 1022.5 |
| 20260830132504 | 91 | 247 | 6.0 | 12.0 | 0.00 | 0.00 | 0.00 | 26 | 1022.7 |
| 20260830131504 | 90 | 260 | 5.0 | 13.0 | 0.00 | 0.00 | 0.00 | 26 | 1022.7 |
| 20260830131004 | 91 | 265 | 6.0 | 14.0 | 0.00 | 0.00 | 0.00 | 25 | 1022.7 |
| 20260830130503 | 90 | 354 | 3.0 | 10.0 | 0.00 | 0.00 | 0.00 | 25 | 1022.7 |
| 20260830130003 | 89 | 246 | 4.0 | 13.0 | 0.00 | 0.00 | 0.00 | 26 | 1022.9 |
| 20260830125504 | 91 | 248 | 5.0 | 9.0 | 0.00 | 0.00 | 0.00 | 24 | 1022.7 |
| 20260830125004 | 91 | 96 | 4.0 | 13.0 | 0.00 | 0.00 | 0.00 | 25 | 1023.0 |
| 20260830124003 | 90 | 333 | 5.0 | 12.0 | 0.00 | 0.00 | 0.00 | 25 | 1022.9 |
| 20260830123504 | 91 | 279 | 3.0 | 8.0 | 0.00 | 0.00 | 0.00 | 25 | 1023.2 |
| 20260830123005 | 90 | 20 | 3.0 | 14.0 | 0.00 | 0.00 | 0.00 | 26 | 1023.0 |
| 20260830122504 | 90 | 190 | 5.0 | 12.0 | 0.00 | 0.00 | 0.00 | 26 | 1023.1 |
| 20260830122004 | 91 | 297 | 3.0 | 8.0 | 0.00 | 0.00 | 0.00 | 25 | 1023.0 |